Regional Weather Roundup
Issued by NWS

Home | Current Version | Previous Version | Text Only | Print | Product List | Glossary On
Versions: 1 2 3 4 5 6 7 8 9 10 11 12 13 14 15 16 17 18 19 20 21 22 23 24 25 26 27 28 29 30 31 32 33 34 35 36 37 38 39 40 41 42 43 44 45 46 47 48 49 50
678
ASUS44 KFWD 230210
RWRTX
NORTH TEXAS HOURLY WEATHER ROUNDUP
NATIONAL WEATHER SERVICE FORT WORTH TX
900 PM CDT SUN APR 22 2018

NOTE: "FAIR" INDICATES FEW OR NO CLOUDS BELOW 12,000 FEET WITH NO
SIGNIFICANT WEATHER AND/OR OBSTRUCTIONS TO VISIBILITY.

TXZ118-119-230300-
DALLAS/FORT WORTH METROPLEX

CITY           SKY/WX    TMP DP  RH WIND       PRES   REMARKS
DFW AIRPORT    MOCLDY    62  45  53 NW8       30.01S
DALLAS LOVE    MOCLDY    65  46  50 NW8       30.03R
FTW MEACHAM    FAIR      61  47  59 NW7       30.03S
DAL-EXECUTIVE  FAIR      60  45  57 NW8       30.02S
FTW-ALLIANCE   FAIR      59  46  62 NW6       30.03S
FTW-NAS-JRB    FAIR      62  46  55 NW5       30.05R
FTW-SPINKS     FAIR      58  46  63 NW6       30.06R
ARLINGTON      FAIR      59  46  62 W6        30.03S
GRAND PRAIRIE  CLEAR     64  43  45 W6        30.05R
ADDISON        CLOUDY    63  46  55 NW6       30.03S
MESQUITE       MOCLDY    61  45  55 NW7       30.03R
LANCASTER      FAIR      59  45  59 NW5       30.04R
$$

TXZ091>094-102>105-117-120-121-131>134-230300-
NORTH CENTRAL TEXAS

CITY           SKY/WX    TMP DP  RH WIND       PRES   REMARKS
SHRMAN/DENISON MOCLDY    57  50  76 CALM      30.04R
GAINESVILLE    CLOUDY    59  46  63 NW6       30.05S
BOWIE          FAIR      57  46  66 W3        30.05R
BRIDGEPORT     FAIR      58  47  65 CALM      30.07S
DECATUR        FAIR      58  46  63 CALM      30.04S
DENTON         CLOUDY    60  48  64 W5        30.03S
MCKINNEY       CLOUDY    62  48  60 NW8       30.03R
BONHAM         CLOUDY    56  50  82 CALM      30.03R
GREENVILLE     CLOUDY    63  50  63 NW5       30.02S
ROCKWALL       CLOUDY    62  47  58 MISG      30.03R
TERRELL        CLOUDY    61  46  57 NW6       30.03R
WAXAHACHIE     FAIR      57  47  69 NW5       30.05R
CLEBURNE       FAIR      57  46  67 N7        30.06R
GRANBURY       FAIR      60  45  58 CALM      30.06R
$$

TXZ083>090-098>101-113>116-127>130-139>142-154-155-230300-
WESTERN NORTH TEXAS

CITY           SKY/WX    TMP DP  RH WIND       PRES   REMARKS
WICHITA FALLS  FAIR      58  45  62 NW8       30.05S
WF-KICKAPOO    FAIR      62  45  53 NW3       30.08S
VERNON         FAIR      60  42  51 N5        30.08S
ABILENE        FAIR      63  38  39 N5        30.08R
ABILENE-DYESS  FAIR      61  36  39 NE6       30.07R
GRAHAM           N/A     57  44  61 CALM      30.05R
BRECKENRIDGE   FAIR      64  37  36 N5        30.06R
CISCO          FAIR      63  37  39 N3        30.07R
EASTLAND       FAIR      54  40  59 N3        30.07R
RANGER         FAIR      58  40  51 N3        30.07R
MINERAL WELLS  FAIR      58  44  60 N7        30.04R
STEPHENVILLE   FAIR      59  41  52 CALM      30.09R
COMANCHE       FAIR      60  41  48 CALM      30.08R
COLEMAN        FAIR      63  37  38 CALM      30.08R
BRADY          FAIR      63  39  42 NE6       30.08R
$$

TXZ143>147-156>162-174-175-230300-
CENTRAL TEXAS

CITY           SKY/WX    TMP DP  RH WIND       PRES   REMARKS
WACO           FAIR      59  45  59 CALM      30.04R
WACO-TSTC      CLEAR     57  46  67 N5        30.04S
WACO-MCGREGOR  FAIR      58  47  66 N5        30.05R
HILLSBORO      FAIR      56  47  71 CALM      30.04R
CORSICANA      FAIR      58  47  66 NW3       30.04R
MEXIA          FAIR      58  45  61 NW7       30.03S
HEARNE         FAIR      59  48  67 CALM      30.05R
CAMERON        FAIR      61  47  61 NE3       30.04R
TEMPLE         FAIR      61  45  55 N5        30.05R
KILLEEN        CLEAR     63  41  45 W2        30.06R
KILLEEN-SKYLRK FAIR      61  46  57 N3        30.06R
FORT HOOD      FAIR      60  45  55 N6        30.02R
GATESVILLE     FAIR      61  45  55 CALM      30.07R
HAMILTON       FAIR      61  41  47 N3        30.07R
LAMPASAS       FAIR      62  43  50 N5        30.05R
$$

TXZ095>097-106>112-122>126-135>138-148>153-164>167-230300-
EAST TEXAS

CITY           SKY/WX    TMP DP  RH WIND       PRES   REMARKS
PARIS          CLOUDY    54  49  83 W5        30.02R
SULPHUR SPRNGS CLOUDY    59  49  70 N8        30.04S
MOUNT PLEASANT MOCLDY    57  48  72 NW14      30.03R
GILMER         CLOUDY    57  49  72 NW3       30.01R THUNDER
MINEOLA        CLOUDY    59  50  72 NW6       30.02R
TYLER          FAIR      58  47  66 NW3       30.01R
LONGVIEW       CLOUDY    58  52  80 NW5       29.99R
MARSHALL       CLOUDY    56  48  72 NW3       30.01R
ATHENS         FAIR      59  45  58 CALM      30.01R
PALESTINE      FAIR      59  47  65 NW3       30.03R
JACKSONVILLE   FAIR      58  48  70 CALM      30.03R
HENDERSON      MOCLDY    57  48  72 CALM      30.02R
CENTER         FAIR      53  51  92 N3        30.01R
NACOGDOCHES      N/A     56  51  84 CALM      30.02R
LUFKIN         MOCLDY    60  49  66 NW3       30.01R
$$

SUPPLEMENTAL OBSERVATIONS (NWS FORT WORTH AREA)

CITY           SKY/WX    TMP DP  RH WIND       PRES   REMARKS
CADDO GRASSLND   N/A     54  48  82 CALM        N/A
LBJ GRASSLAND    N/A     55  43  62 W2          N/A
POSSUM KINGDOM   N/A     61  45  55 VRB5        N/A
GRANBURY         N/A     57  43  58 W2          N/A
MCGREGOR         N/A     59  45  58 NE2         N/A
TEMPLE           N/A     63  45  51 NE7         N/A
PALESTINE        N/A     57  48  72 CALM        N/A
$$

SUPPLEMENTAL OBSERVATIONS (NWS NORMAN AREA)

CITY           SKY/WX    TMP DP  RH WIND       PRES   REMARKS
GOODLETT         N/A     58  37  45 N7        30.09R
ODELL            N/A     57  44  62 N6        30.10R
CROWELL          N/A     60  38  43 N6        30.10R
KNOX CITY        N/A     64  33  31 N8        30.09S
SEYMOUR          N/A     55  43  64 NE6       30.09R
MILLERS CREEK    N/A     61  39  44 NE3         N/A
$$

SUPPLEMENTAL OBSERVATIONS (NWS SAN ANGELO AREA)

CITY           SKY/WX    TMP DP  RH WIND       PRES   REMARKS
WEINERT          N/A     62  36  38 NW6       30.08S
HASKELL          N/A     62  31  31 N8        30.08S
THROCKMORTON     N/A     61  42  49 N5        30.09R
STAMFORD         N/A     62  35  36 N8        30.09R
CLYDE            N/A     60  38  44 N5        30.10R
HAMBY            N/A     61  37  41 NE1         N/A
IVIE RESERVOIR   N/A     66  37  34 NE6         N/A
COLORADO BEND    N/A     63  41  45 N1          N/A
$$

SUPPLEMENTAL OBSERVATIONS (NWS SHREVEPORT AREA)

CITY           SKY/WX    TMP DP  RH WIND       PRES   REMARKS
LUFKIN           N/A     59  50  72 MISG        N/A
$$

SUPPLEMENTAL OBSERVATIONS ARE A COLLECTION OF AUTOMATED INSTRUMENTS
THAT ARE MAINTAINED BY A VARIETY OF FEDERAL AND STATE AGENCIES.
CERTAIN ELEMENTS...SUCH AS HUMIDITY VALUES AND SUSTAINED WIND
SPEEDS...MAY BE APPROXIMATED.





USA.gov is the U.S. government's official web portal to all federal, state and local government web resources and services.